Hourly Weather Roundup
Issued by NWS Central Illinois

Home | Current Version | Previous Version | Text Only | Print | Product List | Glossary On
Versions: 1 2 3 4 5 6 7 8 9 10 11 12 13 14 15 16 17 18 19 20 21 22 23 24 25 26 27 28 29 30 31 32 33 34 35 36 37 38 39 40 41 42 43 44 45 46 47 48 49 50
990
NZUS43 KILX 292210
HWRILX

AREA WEATHER ROUNDUP
NATIONAL WEATHER SERVICE, LINCOLN IL
500 PM CDT THU SEP 29 2016


CITY           SKY/WX    TMP DP  RH WIND       PRES   REMARKS
BLOOMINGTON    PTSUNNY   63  60  90 N16       30.15S
CHAMPAIGN      CLOUDY    72  53  51 N8        30.11S
DANVILLE       PTSUNNY   70  53  54 E5        30.08R HAZE
DECATUR        CLOUDY    63  59  87 N17       30.13S
EFFINGHAM      PTSUNNY   70  55  58 NW6       30.12S
FLORA          PTSUNNY   67  56  67 NW6       30.11S
GALESBURG      CLOUDY    69  54  57 N16       30.20R
JACKSONVILLE   CLOUDY    67  55  63 N9G18     30.17S
LACON          CLOUDY    64  56  74 NE14G20   30.19R
LAWRENCEVILLE  MOSUNNY   69  52  54 N7        30.09S
LITCHFIELD     CLOUDY    60  56  88 NW12      30.15S
$$


CITY           SKY/WX    TMP DP  RH WIND       PRES   REMARKS
LINCOLN        LGT RAIN  62  61  99 N6        30.16S
MACOMB         CLOUDY    71  53  52 N15       30.21R
MATTOON        PTSUNNY   68  53  58 N8        30.10S
MT CARMEL AP   PTSUNNY   68  50  52 N6        30.09S
OLNEY-NOBLE AP CLOUDY    64  52  63 N6        30.11R
PARIS          MOSUNNY   70  52  53 CALM      30.11R
PEORIA         CLOUDY    66  60  81 NE10      30.18R
PONTIAC        CLOUDY    65  63  95 N18       30.17R
RANTOUL        MOSUNNY   72  55  55 N9        30.11S
ROBINSON       CLOUDY    67  52  57 NE9       30.10S
SPRINGFIELD    CLOUDY    64  58  80 N8        30.16S
TAYLORVILLE    CLOUDY    64  59  82 N13       30.14S
$$

...REGIONAL REPORTS...


CITY           SKY/WX    TMP DP  RH WIND       PRES   REMARKS
CHICAGO O`HARE PTSUNNY   64  57  78 NE17G23   30.20R
KANKAKEE       RAIN      63  59  85 NE9G18    30.16R
MOLINE         CLOUDY    73  51  46 NE16G23   30.21S
MOUNT STERLING CLOUDY    70  52  52 N10G16    30.17F
MOUNT VERNON   CLOUDY    64  54  68 CALM      30.12S
PITTSFIELD     CLOUDY    70  54  55 N7        30.18S
QUINCY         PTSUNNY   73  49  42 N16       30.18S
ROCKFORD       PTSUNNY   67  54  63 NE18G29   30.25S
$$


CITY           SKY/WX    TMP DP  RH WIND       PRES   REMARKS
BURLINGTON     SUNNY     73  53  49 NE14      30.20S
CEDAR RAPIDS   SUNNY     73  49  42 N15       30.25F
DES MOINES     SUNNY     75  46  35 NE8       30.30S
KIRKSVILLE     SUNNY     73  49  42 N15       30.24F
OTTUMWA        SUNNY     76  42  29 NE13      30.25F
ST LOUIS       CLOUDY    68  53  58 N10       30.16S
$$


CITY           SKY/WX    TMP DP  RH WIND       PRES   REMARKS
TERRE HAUTE    PTSUNNY   68  50  52 N7        30.10R
EVANSVILLE     MOSUNNY   67  51  56 N6        30.09S
INDIANAPOLIS   PTSUNNY   65  50  58 NE8       30.08S
LAFAYETTE      PTSUNNY   66  53  63 E9        30.10R
MADISON        MOSUNNY   70  52  52 NE21G26   30.28R
MILWAUKEE      CLOUDY    63  58  83 N20G29    30.27R
$$






USA.gov is the U.S. government's official web portal to all federal, state and local government web resources and services.